map of MSZ home
MSZ - Airport
Location
City:  Namibe, Namibe, Angola
ICAO:FNMO
IATA:MSZ

Details
Type:Airport (Aerodrome, Airfield)
Latitude:1515'40"S (-15.261221)
Longitude:1208'48"E (12.146756)
Datum:other
Elevation:210 ft (64 m)
Variation:7.09W (WMM2015 magnetic declination)
0.19 annual change
Runways:1
Longest:8202 × 148 ft (2500 × 45 m), paved

Time
Time Zone:UTC+1
Local Time:

Weather
METAR:FNMO 181200Z 28014KT 9999 FEW006 22/15 Q1013
TAF:FNMO 181045Z 1812/1824 29010KT CAVOK
BECMG 1820/1822 24006KT 9000 NSC

Related Locations
Nearby:
Farthest:PHHF: 11830 mi / 19038 km
Tern Island [French Frigate Shoals Airport], HI, US

Find:

   beyond  
but within

Other Information
Maps:
NOTAMs:
Links:
Sources:

  
  • flag of Angola
  

Sectional Chart

Flight Planning
at skyvector.com

Satellite Image

Google Maps Satellite view

 

Copyright © 2004-2018 Karl L. Swartz. All rights reserved.
The Great Circle Mapper name and logo are trademarks of the Great Circle Mapper.
All other trademarks mentioned herein belong to their respective owners.
Please see credits for attibutions and further copyright information.

  Follow gcmap on Facebook Follow gcmap on Twitter Follow gcmap on Google+ GCmap on LinkedIn

hCard Microformat

Geo Microformat